[[{"header":{"parameterUnit":"m.s-1","parameterCategory":1,"la1":30.2991,"la2":30.254,"lo1":-89.0895,"lo2":-89.0444,"dx":0.0017,"dy":0.0017,"nx":28,"ny":28,"refTime":"2022-11-19T09:00:00:Z","depth":0,"parameterNumber":2,"parameterNumberName":"U-component_of_WINDS"},"data":[0,0,0,0,0,0,0,0,0,0,0,0,0,0,0,0,0,0,0,0,0,0,0,0,0,0,0,0,0,0,0,0,0,0,0,0,0,0,0,0,0,0,0,0,0,0,0,0,0,0,0,0,0,0,0,0,0,0,-1.9411,-1.9411,0,-1.9429,-1.9429,-1.9429,-1.9324,-1.9321,-1.9318,-1.9315,-1.9333,-1.9336,-1.9339,0,0,0,0,0,0,0,0,0,0,0,0,0,-1.9287,-1.9289,-1.9411,-1.9411,-1.9412,-1.9429,-1.9429,-1.9429,-1.9324,-1.9321,-1.9317,-1.9314,-1.9332,-1.9336,-1.934,0,0,0,0,0,0,0,0,0,0,0,0,0,-1.9326,-1.929,-1.9411,-1.9361,-1.9357,-1.9429,-1.9429,-1.9429,-1.9325,-1.9321,-1.9316,-1.9312,-1.933,-1.9335,-1.934,-1.946,0,0,-1.9355,-1.9357,0,0,0,0,0,0,0,0,-1.9324,-1.9331,-1.9368,-1.9365,-1.936,-1.9369,-1.9391,-1.944,-1.9326,-1.9337,-1.9315,-1.931,-1.9349,-1.9352,-1.9365,-1.9461,-1.9462,-1.9355,-1.9358,-1.9361,-1.9362,0,0,0,0,0,0,0,-1.9321,-1.9329,-1.9418,-1.9369,-1.9364,-1.9338,-1.9339,-1.94,-1.9368,-1.9336,-1.9328,-1.9332,-1.9345,-1.936,-1.9365,-1.9462,-1.9355,-1.936,-1.9363,-1.9365,-1.9658,-1.9663,0,0,0,0,0,0,-1.9325,-1.9328,-1.9417,-1.9419,-1.9331,-1.9344,-1.9345,-1.9371,-1.9367,-1.9362,-1.9336,-1.9327,-1.9354,-1.9359,-1.9365,-1.9506,-1.9361,-1.9365,-1.9368,-1.9654,-1.9659,-1.9665,0,0,0,0,0,0,-1.9323,-1.9334,-1.9417,-1.9371,-1.938,-1.9351,-1.9381,-1.9374,-1.9389,-1.9367,-1.936,-1.9357,-1.9351,-1.9358,-1.9437,-1.9505,-1.9367,-1.9372,-1.9648,-1.9655,-1.9662,-1.979,0,0,0,0,0,0,-1.932,-1.9334,-1.938,-1.9373,-1.9383,-1.949,-1.9385,-1.9377,-1.9397,-1.9386,-1.9385,-1.9381,-1.9348,-1.9431,-1.9442,-1.951,-1.9376,-1.9642,-1.9651,-1.966,-1.9779,-1.98,-1.9818,0,0,0,0,0,-1.9316,-1.9415,-1.9383,-1.9394,-1.9439,-1.9494,-1.9499,-1.946,-1.9403,-1.9449,-1.9435,-1.9381,-1.9496,-1.944,-1.9452,-1.9522,-1.9637,-1.9648,-1.9659,-1.9771,-1.9796,-1.9818,0,0,0,0,0,0,-1.943,-1.9413,-1.9377,-1.9477,-1.9488,-1.9476,-1.9532,-1.9488,-1.9515,-1.9504,-1.9453,-1.9454,-1.9542,-1.9539,-1.9478,-1.9638,-1.9556,-1.957,-1.9637,-1.9661,-1.9681,-1.968,-1.938,0,0,0,0,0,-1.9467,-1.9513,-1.9495,-1.9585,-1.9592,-1.9562,-1.9584,-1.9553,-1.9562,-1.9566,-1.9558,-1.9569,-1.9607,-1.9634,-1.9668,-1.9778,-1.9776,-1.9831,-1.9851,-1.9867,-1.9881,-1.9939,-1.9964,-1.9701,-1.97,-1.97,0,0,-1.9543,-1.954,-1.9572,-1.9608,-1.9613,-1.9662,-1.9566,-1.9622,-1.9658,-1.9574,-1.9649,-1.9644,-1.9652,-1.9748,-1.979,-1.9749,-1.9953,-1.9881,-1.9894,-1.9899,-1.9953,-1.9978,-2.0,-1.9708,-1.9707,-1.9705,0,0,-1.9708,-1.971,-1.9785,-1.9792,-1.98,-1.9779,-1.9797,-1.9792,-1.9786,-1.986,-1.9798,-1.984,-1.9907,-1.9917,-1.993,-2.0099,-2.005,-2.0111,-2.0214,-2.0272,-2.0293,-2.0311,-2.0373,-2.0395,-2.0124,-2.0124,-2.0124,0,-1.9802,-1.9874,-1.9829,-1.989,-1.9908,-1.9834,-1.991,-1.9918,-1.9938,-1.9952,-1.9905,-1.9989,-1.9989,-2.0086,-2.0128,-2.014,-2.016,-2.0112,-2.0293,-2.0311,-2.0327,-2.0386,-2.0409,-2.0132,-2.0131,-2.013,-2.0129,0,-1.999,-2.0041,-2.0101,-2.0122,-2.0146,-2.0214,-2.018,-2.021,-2.0176,-2.016,-2.0237,-2.0235,-2.0268,-2.0288,-2.0256,-2.0381,-2.0356,-2.0302,-2.0219,-2.0361,-2.0415,-2.0436,-2.0142,-2.014,-2.0137,-2.0135,0,0,-2.0229,-2.0224,-2.0247,-2.0256,-2.026,-2.0298,-2.0362,-2.0395,-2.0422,-2.0438,-2.0491,-2.055,-2.05,-2.0516,-2.0483,-2.0534,-2.0669,-2.0474,-2.0473,-2.0512,-2.0809,-2.0851,-2.0877,-2.0636,-2.064,-2.0643,-2.0809,0,-2.0391,-2.0502,-2.0463,-2.0576,-2.0623,-2.0553,-2.061,-2.0618,-2.0605,-2.0642,-2.0627,-2.067,-2.0601,-2.061,-2.0657,-2.0643,-2.0728,-2.063,-2.0687,-2.0689,-2.0689,-2.0905,-2.0949,-2.1105,-2.0829,-2.0833,-2.0835,0,-2.0596,-2.062,-2.0739,-2.0735,-2.0753,-2.0804,-2.0831,-2.0868,-2.0876,-2.0862,-2.088,-2.0837,-2.09,-2.0816,-2.0903,-2.0837,-2.0857,-2.0854,-2.0859,-2.0865,-2.0772,-2.0918,-2.1154,-2.1178,-2.0868,-2.0865,-2.0863,0,-2.076,-2.0822,-2.0901,-2.0911,-2.0908,-2.0946,-2.0947,-2.095,-2.0972,-2.0995,-2.1009,-2.104,-2.1057,-2.1081,-2.1047,-2.0989,-2.1139,-2.1052,-2.1131,-2.1132,-2.1167,-2.1166,-2.1412,-2.1178,-2.1177,-2.1177,-2.1177,0,-2.0947,-2.1022,-2.0975,-2.1024,-2.1106,-2.1061,-2.1144,-2.1136,-2.114,-2.1186,-2.1127,-2.1171,-2.1123,-2.1163,-2.1137,-2.1213,-2.1221,-2.1213,-2.1205,-2.1219,-2.1221,-2.1233,-2.1222,-2.1183,-2.1182,-2.1181,-2.118,0,-2.1145,-2.1117,-2.1198,-2.1189,-2.1188,-2.125,-2.1242,-2.1286,-2.1268,-2.1328,-2.1339,-2.1311,-2.1355,-2.1323,-2.1367,-2.1349,-2.145,-2.1426,-2.1448,-2.1442,-2.1523,-2.1517,-2.1788,-2.1821,-2.1564,-2.1567,-2.1569,0,-2.1267,-2.1324,-2.1321,-2.1348,-2.1352,-2.1396,-2.1418,-2.1375,-2.1401,-2.1415,-2.1458,-2.1497,-2.1526,-2.16,-2.1584,-2.1617,-2.1594,-2.1687,-2.1599,-2.1612,-2.1598,-2.1596,-2.1602,-2.1706,-2.1709,-2.1711,-2.1713,0,-2.1487,-2.147,-2.1505,-2.1536,-2.1564,-2.1586,-2.1602,-2.1628,-2.1584,-2.1616,-2.1661,-2.1683,-2.1728,-2.1768,-2.1795,-2.1795,-2.1748,-2.174,-2.1761,-2.1777,-2.1788,-2.1785,-2.1499,-2.1735,-2.1733,-2.1731,-2.173,-2.1729,-2.1652,-2.17,-2.1705,-2.1746,-2.1754,-2.1771,-2.1813,-2.1801,-2.1837,-2.1871,-2.1842,-2.1896,-2.1903,-2.1934,-2.1941,-2.1982,-2.1944,-2.1973,-2.1981,-2.1989,-2.2001,-2.178,-2.1986,-2.1986,-2.1985,-2.1985,-2.1984,0,-2.1871,-2.1871,-2.1909,-2.1935,-2.1967,-2.1918,-2.1935,-2.1965,-2.2013,-2.2023,-2.2053,-2.2105,-2.2143,-2.213,-2.2164,-2.22,-2.2179,-2.221,-2.2208,-2.2209,-2.2032,-2.2012,-2.2227,-2.2227,-2.2227,-2.2227,-2.2226,-2.2226,-2.1988,-2.2066,-2.205,-2.2132,-2.2131,-2.2184,-2.2197,-2.2213,-2.2221,-2.2281,-2.2313,-2.2304,-2.2305,-2.2338,-2.2371,-2.2366,-2.2382,-2.2422,-2.241,-2.2245,-2.2222,-2.2199,-2.218,-2.2426,-2.2426,-2.2583,-2.2585,-2.2586]},{"header":{"parameterUnit":"m.s-1","parameterCategory":1,"la1":30.2991,"la2":30.254,"lo1":-89.0895,"lo2":-89.0444,"dx":0.0017,"dy":0.0017,"nx":28,"ny":28,"refTime":"2022-11-19T09:00:00:Z","depth":0,"parameterNumber":3,"parameterNumberName":"V-component_of_WINDS"},"data":[0,0,0,0,0,0,0,0,0,0,0,0,0,0,0,0,0,0,0,0,0,0,0,0,0,0,0,0,0,0,0,0,0,0,0,0,0,0,0,0,0,0,0,0,0,0,0,0,0,0,0,0,0,0,0,0,0,0,-4.7564,-4.7564,0,-4.7543,-4.7543,-4.7542,-4.7437,-4.7435,-4.7432,-4.743,-4.741,-4.7411,-4.7413,0,0,0,0,0,0,0,0,0,0,0,0,0,-4.7513,-4.7515,-4.7564,-4.7564,-4.7563,-4.7543,-4.7543,-4.7542,-4.7438,-4.7435,-4.7432,-4.7429,-4.7409,-4.7411,-4.7413,0,0,0,0,0,0,0,0,0,0,0,0,0,-4.7518,-4.7515,-4.7564,-4.7509,-4.7504,-4.7543,-4.7543,-4.7542,-4.7438,-4.7435,-4.7431,-4.7427,-4.7408,-4.7411,-4.7414,-4.7505,0,0,-4.7422,-4.7423,0,0,0,0,0,0,0,0,-4.7518,-4.752,-4.7517,-4.7513,-4.7507,-4.7489,-4.7517,-4.753,-4.7439,-4.7463,-4.743,-4.7426,-4.7439,-4.7439,-4.7443,-4.7504,-4.7503,-4.7422,-4.7424,-4.7425,-4.7426,0,0,0,0,0,0,0,-4.7518,-4.7521,-4.7556,-4.7517,-4.7511,-4.7485,-4.7482,-4.7519,-4.7472,-4.7461,-4.7453,-4.7452,-4.7436,-4.7441,-4.7442,-4.7503,-4.7422,-4.7424,-4.7426,-4.7427,-4.7634,-4.7638,0,0,0,0,0,0,-4.7525,-4.7521,-4.7556,-4.7555,-4.7503,-4.7489,-4.7485,-4.7498,-4.7472,-4.7464,-4.7455,-4.7447,-4.7438,-4.7439,-4.7441,-4.7543,-4.7425,-4.7427,-4.7429,-4.763,-4.7635,-4.7639,0,0,0,0,0,0,-4.7525,-4.7529,-4.7557,-4.7536,-4.7537,-4.7494,-4.751,-4.75,-4.7505,-4.7467,-4.7459,-4.7469,-4.7435,-4.7437,-4.7489,-4.7541,-4.7428,-4.7431,-4.7625,-4.7631,-4.7637,-4.775,0,0,0,0,0,0,-4.7524,-4.753,-4.7564,-4.7537,-4.7539,-4.7606,-4.7513,-4.7502,-4.751,-4.7499,-4.7478,-4.7471,-4.7433,-4.7486,-4.7492,-4.7543,-4.7433,-4.762,-4.7628,-4.7635,-4.7742,-4.7759,-4.7774,0,0,0,0,0,-4.7522,-4.7598,-4.7567,-4.7571,-4.7581,-4.7609,-4.761,-4.7563,-4.7515,-4.7548,-4.7524,-4.7472,-4.7535,-4.7492,-4.7498,-4.755,-4.7617,-4.7626,-4.7634,-4.7734,-4.7756,-4.7774,0,0,0,0,0,0,-4.7633,-4.7593,-4.7558,-4.7628,-4.7622,-4.7591,-4.7632,-4.7588,-4.7597,-4.7587,-4.7529,-4.7525,-4.7585,-4.7573,-4.7526,-4.7636,-4.7567,-4.7577,-4.7641,-4.7661,-4.7677,-4.7677,-4.7435,0,0,0,0,0,-4.7666,-4.7691,-4.7656,-4.772,-4.7719,-4.7677,-4.7687,-4.7652,-4.7644,-4.7642,-4.7621,-4.7616,-4.7634,-4.7647,-4.7662,-4.774,-4.7733,-4.7779,-4.7796,-4.7809,-4.7818,-4.7856,-4.7875,-4.7668,-4.7668,-4.7667,0,0,-4.7733,-4.7714,-4.7734,-4.7742,-4.7734,-4.7761,-4.7676,-4.7709,-4.7728,-4.7647,-4.7693,-4.7678,-4.7669,-4.7733,-4.7761,-4.7725,-4.7874,-4.7821,-4.7832,-4.7833,-4.7867,-4.7886,-4.7904,-4.7674,-4.7673,-4.7672,0,0,-4.7869,-4.7859,-4.7909,-4.7903,-4.7891,-4.7862,-4.7874,-4.785,-4.7836,-4.7882,-4.782,-4.7843,-4.7877,-4.7871,-4.7873,-4.8006,-4.7957,-4.8013,-4.8097,-4.8134,-4.815,-4.8165,-4.8209,-4.8226,-4.8022,-4.8022,-4.8023,0,-4.7954,-4.7992,-4.7942,-4.7978,-4.7982,-4.7909,-4.7959,-4.7956,-4.795,-4.7954,-4.7915,-4.7954,-4.7942,-4.8003,-4.8035,-4.804,-4.8051,-4.8013,-4.8152,-4.8166,-4.8178,-4.822,-4.8237,-4.8029,-4.8028,-4.8028,-4.8027,0,-4.8096,-4.8124,-4.8166,-4.8161,-4.817,-4.8214,-4.8169,-4.8185,-4.8149,-4.8124,-4.817,-4.8154,-4.8163,-4.8176,-4.8142,-4.8231,-4.8209,-4.8163,-4.8091,-4.8205,-4.8243,-4.8259,-4.8038,-4.8036,-4.8034,-4.8032,0,0,-4.83,-4.8265,-4.8281,-4.8276,-4.8257,-4.8278,-4.8318,-4.8326,-4.8339,-4.8338,-4.8369,-4.8398,-4.8354,-4.8356,-4.8321,-4.8354,-4.8456,-4.8302,-4.8301,-4.8329,-4.8551,-4.8584,-4.8603,-4.8425,-4.8428,-4.843,-4.855,0,-4.8427,-4.8492,-4.8447,-4.8519,-4.8542,-4.8473,-4.8508,-4.85,-4.8478,-4.8494,-4.847,-4.8491,-4.8432,-4.8432,-4.8462,-4.8438,-4.85,-4.8429,-4.8451,-4.8453,-4.8453,-4.8624,-4.8659,-4.8773,-4.8565,-4.8568,-4.857,0,-4.8584,-4.8587,-4.8662,-4.8635,-4.8644,-4.8675,-4.8677,-4.8695,-4.8684,-4.8666,-4.8668,-4.8623,-4.866,-4.8593,-4.8641,-4.8594,-4.8601,-4.859,-4.8593,-4.8591,-4.8516,-4.8624,-4.8809,-4.8825,-4.8593,-4.8591,-4.859,0,-4.8721,-4.8745,-4.8791,-4.879,-4.8762,-4.8785,-4.8775,-4.876,-4.8767,-4.877,-4.8773,-4.8781,-4.8785,-4.8792,-4.875,-4.8706,-4.8803,-4.8733,-4.8787,-4.8789,-4.8809,-4.8808,-4.8995,-4.8819,-4.8819,-4.8819,-4.8818,0,-4.8866,-4.8913,-4.8852,-4.888,-4.8931,-4.8879,-4.8931,-4.8913,-4.89,-4.8924,-4.8866,-4.8889,-4.8834,-4.8852,-4.882,-4.8863,-4.8867,-4.8852,-4.8842,-4.8855,-4.8856,-4.8857,-4.8846,-4.8823,-4.8822,-4.8821,-4.882,0,-4.9027,-4.8988,-4.9033,-4.9002,-4.8996,-4.9034,-4.9007,-4.9032,-4.9006,-4.9036,-4.904,-4.8999,-4.9017,-4.8977,-4.8989,-4.8968,-4.9029,-4.9008,-4.9032,-4.9024,-4.908,-4.9074,-4.9271,-4.9293,-4.9107,-4.9108,-4.911,0,-4.912,-4.9154,-4.9126,-4.9137,-4.9129,-4.9148,-4.9154,-4.9105,-4.9114,-4.9103,-4.9129,-4.9141,-4.9148,-4.9179,-4.9151,-4.9159,-4.9137,-4.9205,-4.9137,-4.9149,-4.9134,-4.9131,-4.9133,-4.9218,-4.9221,-4.9223,-4.9224,0,-4.9289,-4.9267,-4.9278,-4.9282,-4.9291,-4.9292,-4.9289,-4.9301,-4.9248,-4.9261,-4.9277,-4.9283,-4.9294,-4.9307,-4.9309,-4.9298,-4.9252,-4.9246,-4.9258,-4.927,-4.9281,-4.9273,-4.9066,-4.9241,-4.9239,-4.9238,-4.9237,-4.9237,-4.9416,-4.9442,-4.9426,-4.9439,-4.9432,-4.943,-4.945,-4.9426,-4.9439,-4.9443,-4.9414,-4.9436,-4.9423,-4.9421,-4.9414,-4.9431,-4.94,-4.9419,-4.9423,-4.9427,-4.9435,-4.9281,-4.9432,-4.9431,-4.9431,-4.943,-4.943,0,-4.9579,-4.9565,-4.9578,-4.9574,-4.9585,-4.9541,-4.9535,-4.9546,-4.9566,-4.9557,-4.9565,-4.9583,-4.9594,-4.9567,-4.9574,-4.9592,-4.9571,-4.9596,-4.9592,-4.959,-4.9464,-4.9451,-4.9612,-4.9612,-4.9612,-4.9612,-4.9612,-4.9612,-4.9665,-4.9705,-4.9682,-4.9718,-4.9704,-4.9724,-4.9724,-4.9722,-4.9714,-4.9736,-4.9745,-4.9727,-4.971,-4.9715,-4.9724,-4.9715,-4.9719,-4.975,-4.9734,-4.9617,-4.9599,-4.9582,-4.9569,-4.9752,-4.9753,-4.9858,-4.9859,-4.986]}]]